Погода в Комарове

Россия / Новгородская область     58°38′44″N   33°25′39″E
темп.,
°C
ветер,
м/с
пор.,
м/с
влажн.,
%
обл.,
%
осадки,
мм/ч
давл.,
гПа
погр.,
м
12 апреля, пн
пн1200:00+6юв3888100 0.0 1030276
03:00+6юв2696100 0.5 1030181
06:00+6юв4109365 0.0 1030247
09:00+10ююв497196 0.0 1030327
12:00+15ю59489 0.0 10291170
15:00+17ююв58425 0.0 10281614
18:00+15ююв59465 0.0 10261268
21:00+11юв41262100 0.0 1026541
13 апреля, вт
вт1300:00+10ююв51474100 0.4 10241022
03:00+8ююв41190100 2.8 1023556
06:00+8ююв3994100 1.4 1023411
09:00+8ююв3896100 2.1 1022321
12:00+11ю358194 0.0 1022663
15:00+13ююв457597 0.1 1021763
18:00+12ююв3582100 0.0 1021279
21:00+9ююв2292100 0.0 102139
14 апреля, ср
ср1400:00+10ююв2395100 0.1 102062
03:00+9юв1198100 1.0 101921
06:00+8ссз1299100 1.1 101879
09:00+6ссв3693100 1.1 1018234
12:00+7ссв3489100 0.1 1018248
15:00+5ссз4792100 0.8 1019267
18:00+4с3590100 0.0 1020352
21:00+3с399181 0.1 1021350
15 апреля, чт
чт1500:00+2с269257 0.0 1022234
03:00+2ссв389470 0.0 1022296
06:00+2ссв3989100 0.0 1022356
09:00+4ссв3979100 0.0 1023410
12:00+7св366798 0.0 1023779
15:00+10св3560100 0.0 10221276
18:00+8в137491 0.0 1022166
21:00+6ссв2583100 0.0 1023173
16 апреля, пт
пт1600:00+5ссв3884100 0.0 1024409
03:00+2ссв3108997 0.0 1025334
06:00+1св311840 0.0 1026335
09:00+5св49635 0.0 1027716
12:00+9св57415 0.0 10281283
15:00+11св57360 0.0 10281667
18:00+9св47475 0.0 10291470
21:00+4св511660 0.0 1032537